GW7151 Weather Reports


time (UTC)temp
F
wind
direction
speed
knots
gust
knots
rain 1hr
in
rain 24hr
in
rain mn
in
humidity
%
barometer
mb
20260504174832 79 63 0.9 0.9 0.00 0.00 0.00 44 1010.1
20260504174329 77 3 1.7 1.7 0.00 0.00 0.00 45 1010.2
20260504173826 77 71 1.7 1.7 0.00 0.00 0.00 43 1010.1
20260504173322 77 344 2.6 2.6 0.00 0.00 0.00 46 1010.1
20260504172820 78 19 2.6 2.6 0.00 0.00 0.00 44 1010.3
20260504172316 78 13 2.6 2.6 0.00 0.00 0.00 46 1010.4
20260504171812 80 91 1.7 1.7 0.00 0.00 0.00 44 1010.6
20260504171309 77 9 0.9 0.9 0.00 0.00 0.00 47 1010.6
20260504170806 76 55 1.7 1.7 0.00 0.00 0.00 47 1010.9
20260504170303 76 22 1.7 1.7 0.00 0.00 0.00 51 1010.9
20260504160221 73 64 1.7 1.7 0.00 0.00 0.00 51 1011.4
20260504151150 71 68 2.6 2.6 0.00 0.00 0.00 53 1011.6
20260504150647 70 79 0.9 1.7 0.00 0.00 0.00 52 1011.9
20260504150144 69 30 0.9 1.7 0.00 0.00 0.00 58 1011.8
20260504141113 64 67 0.9 0.9 0.00 0.00 0.00 66 1011.7
20260504140609 64 71 0.9 0.9 0.00 0.00 0.00 67 1011.7
20260504140105 64 63 0.9 0.9 0.00 0.00 0.00 69 1011.8
20260504130533 56 58 0.9 1.7 0.00 0.00 0.00 77 1011.8
20260504110421 48 71 0.0 0.0 0.00 0.00 0.00 91 1011.1
20260504100337 50 71 0.0 0.0 0.00 0.00 0.00 85 1011.0
20260504081731 51 69 0.0 0.0 0.00 0.00 0.00 84 1011.1
20260504081227 51 69 0.0 0.0 0.00 0.00 0.00 85 1011.1
20260504080724 51 69 0.0 0.0 0.00 0.00 0.00 84 1011.1
20260504080220 51 69 0.0 0.0 0.00 0.00 0.00 85 1011.1
20260504070148 52 69 0.0 0.0 0.00 0.00 0.00 81 1012.0
20260504060108 54 69 0.9 0.9 0.00 0.00 0.00 74 1012.4
20260504050537 54 81 0.0 0.0 0.00 0.00 0.00 78 1012.8
20260504045530 54 81 0.9 0.9 0.00 0.00 0.00 77 1012.7
20260504045026 54 81 0.0 0.9 0.00 0.00 0.00 76 1012.9
20260504044524 54 81 0.9 0.9 0.00 0.00 0.00 77 1012.7
20260504044020 54 82 0.0 0.0 0.00 0.00 0.00 80 1012.7
20260504043517 54 82 0.0 0.0 0.00 0.00 0.00 77 1012.9
20260504043015 55 82 0.0 0.9 0.00 0.00 0.00 77 1012.8
20260504042511 54 82 0.0 0.9 0.00 0.00 0.00 78 1013.0
20260504042009 54 82 0.0 0.0 0.00 0.00 0.00 80 1012.7
20260504041504 54 82 0.0 0.0 0.00 0.00 0.00 77 1012.8
20260504041000 55 82 0.0 0.0 0.00 0.00 0.00 78 1012.9
20260504040458 55 82 0.0 0.0 0.00 0.00 0.00 77 1012.9
20260504035954 55 82 0.0 0.0 0.00 0.00 0.00 77 1012.9
20260504035452 55 82 0.0 0.0 0.00 0.00 0.00 76 1012.9
20260504034948 55 82 0.0 0.0 0.00 0.00 0.00 77 1013.0
20260504034446 55 82 0.0 0.0 0.00 0.00 0.00 77 1013.0
20260504033943 55 82 0.0 0.0 0.00 0.00 0.00 78 1013.0
20260504033440 55 82 0.0 0.0 0.00 0.00 0.00 78 1013.1
20260504032937 55 82 0.0 0.0 0.00 0.00 0.00 78 1013.0
20260504032434 55 82 0.0 0.0 0.00 0.00 0.00 75 1012.9
20260504031931 55 82 0.0 0.0 0.00 0.00 0.00 75 1012.8
20260504031428 56 82 0.0 0.0 0.00 0.00 0.00 76 1013.1
20260504030925 56 82 0.0 0.0 0.00 0.00 0.00 76 1012.8
20260504030421 56 82 0.0 0.0 0.00 0.00 0.00 77 1013.1
20260504025917 57 82 0.0 0.0 0.00 0.00 0.00 78 1013.1
20260504025414 57 82 0.0 0.0 0.00 0.00 0.00 69 1013.1
20260504024911 57 82 0.0 0.0 0.00 0.00 0.00 76 1013.2
20260504024408 57 82 0.0 0.0 0.00 0.00 0.00 74 1012.9
20260504023906 57 82 0.0 0.0 0.00 0.00 0.00 74 1013.0
20260504023402 57 82 0.0 0.0 0.00 0.00 0.00 73 1012.9
20260504022857 57 82 0.0 0.0 0.00 0.00 0.00 71 1012.9
20260504022354 58 82 0.0 0.0 0.00 0.00 0.00 73 1012.8
20260504021850 58 81 0.0 0.0 0.00 0.00 0.00 70 1012.9
20260504021348 57 82 0.0 0.0 0.00 0.00 0.00 72 1012.6
20260504020845 57 81 0.0 0.0 0.00 0.00 0.00 74 1012.8
20260504020342 58 81 0.0 0.9 0.00 0.00 0.00 76 1012.6
20260504015838 58 81 0.0 0.0 0.00 0.00 0.00 72 1012.7
20260504015334 59 81 0.0 0.0 0.00 0.00 0.00 72 1012.5
20260504014830 59 81 0.0 0.0 0.00 0.00 0.00 71 1012.3
20260504014326 59 81 0.0 0.0 0.00 0.00 0.00 68 1012.4
20260504013824 59 81 0.0 0.0 0.00 0.00 0.00 72 1012.4
20260504013322 59 81 0.0 0.0 0.00 0.00 0.00 68 1012.4
20260504012818 59 81 0.0 0.9 0.00 0.00 0.00 73 1012.4
20260504012316 60 81 0.0 0.0 0.00 0.00 0.00 66 1012.3
20260504011814 61 106 0.0 0.9 0.00 0.00 0.00 64 1012.3
20260504011310 60 107 0.0 0.0 0.00 0.00 0.00 60 1011.9
20260504010805 61 107 0.0 0.0 0.00 0.00 0.00 66 1012.2
20260504010301 61 106 0.0 0.9 0.00 0.00 0.00 64 1011.9
20260504005758 62 117 0.0 0.0 0.00 0.00 0.00 61 1012.0
20260504005255 62 117 0.0 0.0 0.00 0.00 0.00 59 1012.1
20260504004753 62 117 0.0 0.0 0.00 0.00 0.00 54 1011.9
20260504004250 62 117 0.0 0.0 0.00 0.00 0.00 53 1012.2
20260504003746 63 117 0.0 0.0 0.00 0.00 0.00 59 1012.1
20260504003243 63 117 0.0 0.0 0.00 0.00 0.00 58 1012.2
20260504002740 64 117 0.0 0.0 0.00 0.00 0.00 53 1012.1
20260504002237 63 117 0.0 0.0 0.00 0.00 0.00 53 1012.2
20260504001735 64 117 0.0 0.0 0.00 0.00 0.00 53 1012.0
20260504001232 64 117 0.0 0.0 0.00 0.00 0.00 52 1011.9
20260504000728 64 117 0.0 0.0 0.00 0.00 0.00 52 1011.8
20260504000226 65 117 0.0 0.0 0.00 0.00 0.00 51 1011.8
20260503235724 65 117 0.0 0.0 0.00 0.00 0.00 50 1011.9
20260503235220 65 117 0.0 0.0 0.00 0.00 0.00 51 1012.0
20260503234718 66 117 0.0 0.0 0.00 0.00 0.00 50 1011.9
20260503234216 66 117 0.0 0.0 0.00 0.00 0.00 50 1012.2
20260503233713 67 118 0.0 0.0 0.00 0.00 0.00 50 1012.1
20260503233208 67 118 0.0 0.0 0.00 0.00 0.00 46 1012.0
20260503232705 67 118 0.0 0.0 0.00 0.00 0.00 46 1012.3
20260503232202 67 136 0.0 0.0 0.00 0.00 0.00 52 1012.1
20260503231701 68 114 0.0 0.0 0.00 0.00 0.00 44 1012.4
20260503231156 68 115 0.9 0.9 0.00 0.00 0.00 48 1012.3
20260503230653 68 102 0.0 0.0 0.00 0.00 0.00 48 1012.3
20260503230151 69 91 0.0 0.0 0.00 0.00 0.00 47 1012.3
20260503225648 69 101 0.0 0.9 0.00 0.00 0.00 44 1012.0
20260503225148 69 127 0.0 0.0 0.00 0.00 0.00 42 1012.3
20260503224645 70 77 0.9 0.9 0.00 0.00 0.00 37 1012.5
20260503224143 70 97 0.0 0.9 0.00 0.00 0.00 38 1012.4
20260503223641 70 70 0.9 1.7 0.00 0.00 0.00 40 1012.3
20260503223137 70 137 0.0 0.0 0.00 0.00 0.00 45 1012.5
20260503222634 70 18 0.9 1.7 0.00 0.00 0.00 38 1012.4
20260503222132 70 132 0.9 1.7 0.00 0.00 0.00 41 1012.5
20260503221631 70 110 0.0 0.0 0.00 0.00 0.00 40 1012.4
20260503221127 70 124 0.0 0.0 0.00 0.00 0.00 41 1012.4
20260503220624 70 131 0.0 0.9 0.00 0.00 0.00 39 1012.5
20260503220121 71 113 0.0 0.9 0.00 0.00 0.00 45 1012.7
20260503215618 71 75 0.9 0.9 0.00 0.00 0.00 40 1012.6
20260503215114 70 131 0.9 1.7 0.00 0.00 0.00 41 1012.5
20260503214613 70 128 0.9 0.9 0.00 0.00 0.00 40 1012.6
20260503214109 71 116 0.0 0.9 0.00 0.00 0.00 42 1012.8
20260503213608 71 75 0.9 0.9 0.00 0.00 0.00 40 1012.9
20260503213104 71 272 0.0 0.0 0.00 0.00 0.00 39 1012.9
20260503212602 71 138 0.0 0.0 0.00 0.00 0.00 37 1013.0
20260503212059 71 132 0.9 0.9 0.00 0.00 0.00 38 1013.2
20260503211556 71 74 1.7 1.7 0.00 0.00 0.00 37 1013.0
20260503211051 71 125 0.9 0.9 0.00 0.00 0.00 40 1013.2
20260503210548 71 313 0.9 1.7 0.00 0.00 0.00 36 1013.4
20260503210044 71 129 0.0 0.9 0.00 0.00 0.00 39 1013.5
20260503205541 71 87 0.0 0.9 0.00 0.00 0.00 39 1013.5
20260503205037 71 81 0.9 0.9 0.00 0.00 0.00 41 1013.6
20260503204534 71 175 2.6 2.6 0.00 0.00 0.00 34 1013.6
20260503204031 71 61 0.9 0.9 0.00 0.00 0.00 38 1013.8
20260503203529 71 113 0.0 0.9 0.00 0.00 0.00 39 1013.7
20260503203026 71 139 0.9 0.9 0.00 0.00 0.00 40 1014.0
20260503202523 71 82 0.9 0.9 0.00 0.00 0.00 39 1013.9
20260503202021 72 40 2.6 2.6 0.00 0.00 0.00 40 1014.0
20260503201519 71 47 2.6 2.6 0.00 0.00 0.00 37 1014.3
20260503201016 71 143 0.9 0.9 0.00 0.00 0.00 38 1014.5
20260503200512 71 106 0.0 0.0 0.00 0.00 0.00 37 1014.5
20260503200009 72 114 1.7 2.6 0.00 0.00 0.00 34 1014.4
20260503195506 72 0 2.6 2.6 0.00 0.00 0.00 36 1014.8
20260503195003 72 92 0.9 0.9 0.00 0.00 0.00 34 1014.7
20260503194500 71 112 0.0 0.9 0.00 0.00 0.00 38 1015.1
20260503193955 71 115 1.7 1.7 0.00 0.00 0.00 35 1015.2
20260503193451 71 151 1.7 1.7 0.00 0.00 0.00 36 1015.1
20260503192946 72 278 0.0 0.0 0.00 0.00 0.00 35 1015.2
20260503192443 72 160 1.7 1.7 0.00 0.00 0.00 38 1015.3
20260503191938 71 66 0.9 0.9 0.00 0.00 0.00 38 1015.2
20260503191437 72 32 2.6 2.6 0.00 0.00 0.00 35 1015.5
20260503190932 73 176 0.9 1.7 0.00 0.00 0.00 39 1015.4
20260503190430 72 55 2.6 2.6 0.00 0.00 0.00 34 1015.4
20260503185927 72 339 1.7 2.6 0.00 0.00 0.00 36 1015.7
20260503185423 73 103 0.9 0.9 0.00 0.00 0.00 33 1015.7
20260503184922 71 40 0.9 1.7 0.00 0.00 0.00 36 1015.9
20260503184420 70 100 0.9 0.9 0.00 0.00 0.00 34 1015.8
20260503183916 71 122 2.6 2.6 0.00 0.00 0.00 34 1015.9
20260503183412 72 138 1.7 2.6 0.00 0.00 0.00 38 1015.9
20260503182909 71 92 0.9 0.9 0.00 0.00 0.00 37 1016.2
20260503182409 71 164 2.6 2.6 0.00 0.00 0.00 35 1016.2
20260503181905 70 169 1.7 2.6 0.00 0.00 0.00 35 1016.1
20260503181402 71 122 1.7 2.6 0.00 0.00 0.00 36 1016.2
20260503180859 71 150 2.6 5.2 0.00 0.00 0.00 37 1016.2
20260503180357 71 99 0.9 1.7 0.00 0.00 0.00 37 1016.5
20260503175853 73 134 0.9 2.6 0.00 0.00 0.00 36 1016.7
20260503175351 73 62 1.7 1.7 0.00 0.00 0.00 38 1016.6